Location: Proctor
(47.8934°N, 114.3048°W)
Time: 22:26:58
(UTC+00:00)

Tiros 1 despin weight - Pass Details

Date: 01 July 2024
Orbit: 576 x 620 km, 48.2° (Epoch: 19 July)

Event Time Altitude Azimuth Distance (km) Brightness Sun altitude
Rises 15:48:41 0° 213° (SSW) 2,847 ? 38.0°
Reaches altitude 10° 15:51:14 10° 201° (SSW) 1,955 ? 38.4°
Maximum altitude 15:54:58 26° 144° (SE) 1,213 ? 39.1°
Drops below altitude 10° 15:58:45 10° 88° (E) 1,980 ? 39.7°
Sets 16:01:21 0° 76° (ENE) 2,893 ? 40.1°
